STARLINK-4429, 53495

Orbit data source: Space-Track

STARLINK-4429, 53495 is a payload satellite owned by SpaceX/Seattle (US) in SSO that was launched on Fri, 12 Aug 2022 UTC via an FALCON 9 launch vehicle from the Air Force Western Test Range (AFWTR). Payload-class satellites include a variety of spacecraft equipped with specific instruments for various scientific and technological missions. These include communications satellites like Starlink; space stations such as the ISS; scientific satellites like the Hubble; Earth observation satellites from companies like Planet Labs, Umbra, and HawkEye 360; GPS; miniature CubeSats for education and research; and military/defense satellites.

Loading next visibility...
Identifier
53495, 2022-099AG
Orbit
SSO
Country
Flag of USUS
Related business
Manufacturer
SpaceX/Seattle
Mission
Operational Commercial Communications
Bus & Motor
STARLINK, Unknown motor
Mass
300 kg wet, ~275 kg dry
Launch date (UTC)
2022-08-12 (4 years ago)
Launch vehicle
FALCON 9
Launch site
Air Force Western Test Range (AFWTR)
Object type
Payload
Rocket body
Debris
Shape & HBR
Box + 1 Pan, 10.1 m
Radar Cross Section
13.562 m², Large (>1 m²)

Expand to show TLE details & history
Last TLE update: 2 days ago

TLE from 2 days ago
0 STARLINK-4429
1 53495U 22099AG  26171.28256124  .00001068  00000-0  77991-4 0  9997
2 53495  97.3369 290.1130 0002235 133.5501 226.5912 15.05649930211419
Epoch: 2026-06-20T06:46Z
TLE epoch observation values (Epoch: 2026-06-20T06:46:53.291Z)
Latitude
-0.00004°
Longitude
-80.10846°
Altitude
553.649 km
Speed
7.584 km/s
True Right ascension
19h 20m 27s
True Declination
0° 00' 00"
Sunlit
Object was in full shadow at epoch
Visualization orbit readout
Latitude
Unknown
Longitude
Unknown
Altitude
Unknown
Speed
Unknown
Apparent Right ascension
Unknown
Apparent Declination
Unknown
Sunlit
N/A
Visualization observer readout
Local Sidereal Time
21:43:01
Azimuth
Unknown
Elevation
Unknown
Doppler factor
Unknown
Orbital elements
Apogee altitude
548.041 km
Perigee altitude
544.946 km
Semi-major axis
6,924.63 km
Eccentricity
0.00022
Inclination
97.3369°
RAAN
290.113°
Arg. of periapsis
133.5501°
True anomaly
226.5726°
Mean anomaly
226.5912°
Eccentric anomaly
226.5819°
Mean motion
3.76659 °/min
Orbital period
95.58 mins
BSTAR
0.000077991
Loading maneuver chart data...
Computing Atmospheric mass density...
Loading historical data...
Loading historical data...
Loading historical data...
Loading historical data...
Loading historical data...
Loading historical data...
Loading historical data...

Documentation

Showing up to 5 results
|